Overview Statistics Trail Chart Weather Telemetry Raw packets
 

This is the latest recevied weather packets stored in our database for station/object KC1TEM-13. If no packets are shown the sender has not sent any weather packets the latest 10 day(s).

<< 10 11 12 13 14 15 16 >>
Time Temp. Humidity Pressure Rain* Wind** Luminosity Snow
1788546809 28.89° C 51% 1009.2 hPa 0 mm - 662 W/m² -
1788546504 28.33° C 52% 1008.9 hPa 0 mm - 706 W/m² -
1788546199 28.33° C 54% 1009.1 hPa 0 mm - 740 W/m² -
1788545895 28.33° C 54% 1009 hPa 0 mm - 753 W/m² -
1788545594 28.33° C 52% 1009 hPa 0 mm - 522 W/m² -
1788545290 28.89° C 51% 1008.8 hPa 0 mm - 709 W/m² -
1788544985 28.33° C 51% 1009.2 hPa 0 mm - 721 W/m² -
1788544684 28.33° C 55% 1008.9 hPa 0 mm - 733 W/m² -
1788544382 27.78° C 58% 1008.9 hPa 0 mm - 741 W/m² -
1788544078 27.78° C 56% 1009.1 hPa 0 mm - 746 W/m² -
1788543774 26.67° C 62% 1009.1 hPa 0 mm - 755 W/m² -
1788543470 26.11° C 64% 1009.2 hPa 0 mm - 776 W/m² -
1788543170 25.56° C 66% 1009.2 hPa 0 mm - 192 W/m² -
1788542866 26.67° C 66% 1009.3 hPa 0 mm - 141 W/m² -
1788542564 27.22° C 60% 1009.3 hPa 0 mm - 128 W/m² -
1788542260 27.78° C 60% 1009.5 hPa 0 mm - 192 W/m² -
1788541955 27.78° C 58% 1009.4 hPa 0 mm - 207 W/m² -
1788541652 28.33° C 55% 1009.6 hPa 0 mm - 200 W/m² -
1788541347 28.33° C 56% 1009.4 hPa 0 mm - 228 W/m² -
1788541047 27.78° C 55% 1009.4 hPa 0 mm - 865 W/m² -
1788540741 27.78° C 56% 1009.5 hPa 0 mm - 830 W/m² -
1788540441 27.78° C 56% 1009.6 hPa 0 mm - 826 W/m² -
1788540135 27.22° C 54% 1009.6 hPa 0 mm - 806 W/m² -
1788539832 27.22° C 62% 1009.8 hPa 0 mm - 804 W/m² -
1788539527 27.78° C 61% 1009.6 hPa 0 mm - 373 W/m² -

* Rain latest hour (hover to see other rain measurements)
** Current wind speed in m/s (hover to see current wind gust speed)